Weather in Punta Cana

Dominican Republic     18°33′38″N   68°21′53″W
temp.,
°C
wind,
m/s
gust,
m/s
humid.,
%
clouds,
%
prec.,
mm/h
press.,
hPa
HPBL,
m
21 october, thu
thu2123:00+28ene56775 0.4 1015691
02:00+28se44774 3.3 1014534
05:00+28e337788 0.5 1014629
08:00+28e55785 0.9 1016641
11:00+29se34731 0.3 1016684
14:00+28ese45724 0.7 1014684
17:00+29ese46705 0.0 1014981
20:00+28ese45746 0.0 1015805
22 october, fri
fri2223:00+28ene347413 0.3 1016609
02:00+28ese68766 1.3 1015801
05:00+28ese67745 0.3 1014889
08:00+28ese677313 0.7 1016986
11:00+29ese67686 0.1 10171116
14:00+29e356696 0.1 1015844
17:00+28e45685 0.1 1014974
20:00+28e45705 1.1 1015734
23 october, sat
sat2323:00+28se45705 0.1 1015829
02:00+28ese67675 0.2 10151020
05:00+27e666851 0.0 1014850
08:00+28e5664100 0.0 1015792
11:00+28e566698 0.0 1016929
14:00+28se2464100 0.0 1014684
17:00+28e3568100 0.1 1013812
20:00+28ne447098 0.1 1015640
24 october, sun
sun2423:00+28e3469100 0.3 1015798
02:00+28e667168 0.3 1014808
05:00+28e667199 0.0 1014755
08:00+28e677227 0.0 1015969
11:00+28e56745 0.4 1016857
14:00+29e45685 0.4 1014887
17:00+28ene446916 0.0 1014891
20:00+28ene67765 0.7 1015776
25 october, mon
mon2523:00+28ene787813 3.3 1016858
02:00+28e67786 5.3 1015643
05:00+27e577829 0.3 1014786
08:00+28ene567787 0.5 1015804
11:00+28e667597 0.1 1016829
14:00+28e457413 0.2 1013772
17:00+28ene447510 0.0 1013796
20:00+28ene56755 0.0 1014713